SCP
0 0 0 0 0 0 0 0 0 0 -0 -0 -0 -0 -0 -0 -0 0 0 0 0 0
0 0 0 0 0 0 0 0 0 0 0 0 0 -0 -0 -0 -0 0 0 0 0 0
0 0 0 0 0 0 0 0 0 0 0 0 0 -0 -0 -0 -0 -0 0 0 0 0
0 0 0 0 0 0 0 0 0 0 0 0 0 -0 -0 -0 -0 -0 -0 0 0 0
0 0 0 0 0 0 0 0 0 0 0 0 0 0 0 0 -0 -0 0 -0 -0 0
0 0 0 0 -0 0 0 0 0 0 0 0 -0 -0 0 0 0 0 0 0 0 -0
0 0 0 0 0 0 0 0 0 0 0 0 -0 -0 0 0 0 0 0 0 0 0
0 0 0 0 0 0 0 0 0 0 0 0 -0 0 0 0 0 0 0 0 -0 -0
0 0 0 0 0 0 0 0 0 0 0 0 0 0 0 0 0 0 0 0 0 0
0 0 0 0 0 0 0 0 0 0 0 0 0 0 0 0 -0 -0 -0 0 0 0
0 0 0 0 0 0 0 0 0 0 0 0 0 0 0 0 -0 -0 -0 -0 -0 0
0 0 0 0 0 0 0 0 0 0 0 0 0 0 0 0 -0 -0 0 0 -0 -0
0 0 0 0 0 0 0 0 0 0 0 0 0 0 0 0 -0 -0 -0 -0 -0 0
0 0 0 0 0 0 0 0 0 0 0 0 0 0 0 0 0 -0 -0 -0 -0 -0
Wind_Speed_500mb
16 22 27 30 33 34 36 38 39 39 41 44 49 54 51 45 39 35 34 31 27 26
14 19 25 30 31 34 34 36 38 38 39 40 41 47 51 53 46 42 41 44 38 30
11 16 22 26 30 33 33 34 37 39 41 44 44 41 45 51 49 44 47 54 52 42
12 15 19 24 27 30 30 32 35 39 42 45 47 47 45 46 51 52 52 59 66 60
12 14 16 21 26 28 29 29 32 34 38 44 49 50 50 51 52 52 57 60 65 71
12 13 14 19 25 28 29 28 28 30 34 40 48 50 53 52 52 54 57 59 65 70
11 9 13 17 20 25 27 27 27 29 32 34 41 47 48 49 50 54 56 60 62 65
9 6 7 10 16 19 23 28 28 27 30 35 40 44 47 47 49 52 55 56 61 63
8 4 6 11 15 18 22 27 30 33 33 35 41 42 42 43 45 49 54 56 57 55
8 4 7 12 15 19 23 25 29 33 37 39 42 42 41 42 44 48 52 56 54 54
11 6 7 10 13 16 18 22 29 33 36 37 40 38 40 40 44 46 49 54 55 52
13 9 7 9 12 14 15 20 26 31 33 36 37 36 35 37 41 42 46 48 52 51
16 14 13 13 15 14 13 17 22 25 31 33 34 35 33 32 34 37 40 43 46 48
20 17 16 14 13 11 9 11 18 23 26 28 31 33 33 31 33 37 37 41 43 41
Wind_Direction_500mb
28 31 28 27 24 22 21 20 18 17 17 18 23 23 20 19 18 19 15 358 338 318
37 32 29 28 26 28 28 27 23 23 23 21 22 29 29 25 21 22 30 25 13 356
40 33 28 26 28 32 32 32 29 30 33 33 31 30 33 37 35 33 37 45 35 22
49 39 31 28 33 35 34 36 35 33 36 39 38 36 33 38 37 39 42 49 49 44
59 51 37 27 38 41 38 40 41 39 40 43 41 39 38 37 37 38 43 47 45 47
72 56 39 25 27 37 37 40 43 41 42 50 46 41 40 38 39 40 43 44 46 43
87 52 28 20 18 28 37 40 43 42 39 48 49 45 43 42 44 44 43 44 47 46
105 72 36 27 31 39 46 46 46 45 43 41 44 42 41 42 46 52 49 48 46 46
141 96 54 54 56 59 61 54 52 52 50 46 47 43 40 39 45 49 54 51 51 49
174 136 80 77 82 79 68 61 56 53 51 50 49 43 39 39 42 45 48 49 47 48
199 178 117 102 96 85 73 66 64 60 54 51 50 42 39 40 43 45 46 46 41 45
196 188 148 117 104 95 76 67 62 61 57 50 51 46 44 42 43 45 49 51 44 38
185 174 152 124 107 99 84 72 63 54 50 45 42 40 42 43 46 47 48 49 48 44
175 170 159 140 120 104 84 67 59 48 42 37 36 32 34 47 44 46 44 47 47 41
Wind_Speed_850mb
16 22 27 30 33 34 36 38 39 39 41 44 49 54 51 45 39 35 34 31 27 26
14 19 25 30 31 34 34 36 38 38 39 40 41 47 51 53 46 42 41 44 38 30
11 16 22 26 30 33 33 34 37 39 41 44 44 41 45 51 49 44 47 54 52 42
12 15 19 24 27 30 30 32 35 39 42 45 47 47 45 46 51 52 52 59 66 60
12 14 16 21 26 28 29 29 32 34 38 44 49 50 50 51 52 52 57 60 65 71
12 13 14 19 25 28 29 28 28 30 34 40 48 50 53 52 52 54 57 59 65 70
11 9 13 17 20 25 27 27 27 29 32 34 41 47 48 49 50 54 56 60 62 65
9 6 7 10 16 19 23 28 28 27 30 35 40 44 47 47 49 52 55 56 61 63
8 4 6 11 15 18 22 27 30 33 33 35 41 42 42 43 45 49 54 56 57 55
8 4 7 12 15 19 23 25 29 33 37 39 42 42 41 42 44 48 52 56 54 54
11 6 7 10 13 16 18 22 29 33 36 37 40 38 40 40 44 46 49 54 55 52
13 9 7 9 12 14 15 20 26 31 33 36 37 36 35 37 41 42 46 48 52 51
16 14 13 13 15 14 13 17 22 25 31 33 34 35 33 32 34 37 40 43 46 48
20 17 16 14 13 11 9 11 18 23 26 28 31 33 33 31 33 37 37 41 43 41
Wind_Direction_850mb
28 31 28 27 24 22 21 20 18 17 17 18 23 23 20 19 18 19 15 358 338 318
37 32 29 28 26 28 28 27 23 23 23 21 22 29 29 25 21 22 30 25 13 356
40 33 28 26 28 32 32 32 29 30 33 33 31 30 33 37 35 33 37 45 35 22
49 39 31 28 33 35 34 36 35 33 36 39 38 36 33 38 37 39 42 49 49 44
59 51 37 27 38 41 38 40 41 39 40 43 41 39 38 37 37 38 43 47 45 47
72 56 39 25 27 37 37 40 43 41 42 50 46 41 40 38 39 40 43 44 46 43
87 52 28 20 18 28 37 40 43 42 39 48 49 45 43 42 44 44 43 44 47 46
105 72 36 27 31 39 46 46 46 45 43 41 44 42 41 42 46 52 49 48 46 46
141 96 54 54 56 59 61 54 52 52 50 46 47 43 40 39 45 49 54 51 51 49
174 136 80 77 82 79 68 61 56 53 51 50 49 43 39 39 42 45 48 49 47 48
199 178 117 102 96 85 73 66 64 60 54 51 50 42 39 40 43 45 46 46 41 45
196 188 148 117 104 95 76 67 62 61 57 50 51 46 44 42 43 45 49 51 44 38
185 174 152 124 107 99 84 72 63 54 50 45 42 40 42 43 46 47 48 49 48 44
175 170 159 140 120 104 84 67 59 48 42 37 36 32 34 47 44 46 44 47 47 41